Temp
-11 -11 -11 -11 -11 -11 -11 -11 -11 -11 -11 -11 -11 -11 -11 -11 -11 -11 -11 -11 -11 -11 -11 -11 -11 -11 -12 -12 -12 -12 -12 -12 -12 -12 -13 -13 -13 -13
-11 -11 -11 -11 -11 -11 -10 -11 -12 -12 -12 -11 -11 -11 -11 -11 -11 -11 -11 -11 -11 -11 -11 -11 -11 -12 -12 -12 -12 -13 -13 -13 -12 -13 -13 -13 -13 -14
-11 -11 -11 -11 -10 -10 -11 -11 -11 -13 -12 -12 -11 -12 -12 -12 -11 -11 -11 -11 -12 -12 -12 -11 -12 -12 -12 -12 -13 -13 -13 -13 -13 -13 -13 -13 -13 -14
-12 -11 -11 -11 -11 -11 -11 -11 -11 -13 -13 -12 -12 -13 -12 -12 -12 -12 -12 -12 -12 -12 -11 -11 -12 -12 -12 -12 -12 -12 -13 -13 -13 -13 -13 -13 -14 -14
-13 -11 -12 -12 -11 -11 -11 -11 -11 -14 -13 -13 -12 -13 -12 -12 -12 -12 -12 -12 -12 -12 -12 -12 -12 -12 -12 -13 -12 -12 -13 -13 -13 -13 -13 -13 -13 -14
-12 -12 -12 -12 -12 -11 -11 -11 -11 -15 -14 -13 -13 -13 -13 -12 -12 -12 -12 -12 -12 -12 -12 -12 -12 -12 -12 -12 -12 -13 -13 -13 -13 -13 -13 -13 -13 -14
-12 -12 -12 -12 -11 -11 -12 -11 -12 -15 -14 -14 -13 -13 -13 -13 -13 -13 -13 -13 -13 -13 -12 -12 -12 -12 -12 -12 -12 -13 -12 -12 -13 -12 -12 -13 -14 -14
-12 -12 -12 -12 -12 -12 -12 -13 -14 -13 -14 -14 -14 -13 -13 -13 -14 -13 -13 -13 -13 -13 -13 -13 -12 -12 -12 -12 -12 -13 -12 -12 -12 -12 -13 -13 -13 -14
-13 -12 -13 -12 -13 -13 -13 -14 -15 -14 -14 -14 -14 -13 -13 -14 -14 -13 -14 -13 -13 -13 -13 -13 -13 -13 -13 -13 -12 -12 -12 -12 -13 -13 -13 -13 -14 -14
-13 -13 -13 -13 -13 -14 -14 -14 -14 -14 -15 -13 -13 -13 -14 -14 -14 -13 -13 -13 -13 -13 -13 -13 -13 -13 -13 -13 -12 -12 -12 -12 -12 -13 -14 -14 -14 -15
-13 -13 -13 -13 -13 -13 -14 -14 -13 -13 -14 -14 -14 -14 -14 -14 -14 -13 -13 -13 -13 -13 -13 -13 -13 -13 -13 -13 -12 -12 -12 -11 -12 -14 -14 -15 -15 -15
-13 -12 -13 -14 -14 -14 -13 -13 -13 -13 -14 -13 -13 -13 -13 -14 -13 -14 -13 -13 -13 -13 -14 -13 -13 -13 -12 -13 -13 -13 -12 -12 -13 -13 -14 -15 -15 -15
-14 -13 -13 -13 -14 -14 -13 -13 -13 -14 -13 -13 -13 -13 -13 -13 -14 -14 -14 -14 -13 -14 -14 -13 -13 -13 -13 -13 -13 -13 -12 -13 -13 -13 -13 -14 -15 -15
-14 -14 -13 -14 -13 -13 -13 -13 -13 -13 -13 -13 -13 -13 -13 -14 -14 -15 -14 -14 -14 -14 -14 -13 -13 -14 -13 -13 -12 -13 -13 -13 -13 -13 -13 -14 -14 -15
-15 -14 -14 -14 -14 -14 -14 -14 -14 -13 -13 -13 -13 -13 -14 -14 -14 -14 -14 -14 -14 -13 -14 -14 -15 -14 -13 -13 -13 -13 -12 -13 -14 -14 -14 -14 -14 -14
-15 -15 -16 -14 -15 -14 -13 -13 -14 -14 -13 -13 -14 -14 -14 -15 -15 -14 -14 -14 -14 -14 -15 -14 -14 -14 -13 -13 -13 -13 -13 -13 -14 -14 -14 -14 -14 -14
-15 -15 -15 -15 -16 -15 -14 -13 -13 -13 -13 -13 -14 -14 -15 -15 -15 -15 -15 -15 -15 -15 -15 -14 -14 -14 -14 -14 -14 -14 -14 -14 -14 -14 -14 -14 -14 -14
-15 -15 -14 -14 -15 -14 -14 -14 -14 -14 -14 -13 -13 -14 -15 -15 -15 -15 -15 -15 -15 -15 -15 -15 -15 -15 -15 -14 -14 -14 -14 -14 -14 -14 -14 -14 -15 -14
-15 -15 -15 -15 -15 -15 -15 -15 -14 -14 -14 -14 -14 -14 -15 -15 -15 -15 -14 -14 -15 -15 -15 -15 -15 -15 -14 -14 -14 -14 -14 -14 -14 -14 -15 -15 -15 -14
-16 -15 -15 -15 -15 -15 -15 -15 -15 -14 -14 -14 -14 -14 -14 -15 -15 -15 -15 -14 -15 -14 -15 -15 -15 -15 -14 -15 -14 -14 -14 -14 -14 -15 -15 -16 -15 -15
-16 -16 -15 -15 -15 -16 -15 -15 -14 -14 -14 -14 -14 -14 -14 -14 -14 -15 -15 -14 -15 -15 -15 -15 -15 -15 -15 -15 -15 -15 -15 -15 -15 -14 -14 -14 -15 -15
-16 -16 -17 -16 -16 -16 -17 -16 -15 -15 -15 -15 -14 -15 -15 -15 -14 -15 -14 -15 -15 -16 -16 -15 -15 -15 -15 -15 -15 -15 -15 -15 -15 -15 -15 -15 -15 -16
-18 -18 -18 -17 -16 -17 -17 -16 -16 -15 -15 -15 -15 -15 -15 -15 -15 -15 -15 -15 -15 -16 -17 -16 -16 -16 -16 -15 -15 -15 -16 -16 -15 -15 -15 -15 -16 -16
Height
5769 5774 5781 5786 5790 5795 5799 5803 5807 5812 5816 5818 5822 5824 5827 5829 5831 5833 5833 5833 5832 5831 5830 5828 5825 5824 5822 5819 5817 5814 5810 5806 5801 5797 5793 5789 5784 5779
5760 5765 5771 5776 5782 5787 5791 5793 5797 5802 5808 5811 5813 5817 5820 5823 5824 5826 5826 5827 5825 5824 5823 5822 5819 5818 5816 5813 5811 5808 5805 5801 5796 5792 5787 5783 5778 5773
5749 5756 5761 5767 5770 5775 5780 5784 5787 5793 5800 5802 5806 5809 5811 5814 5815 5818 5819 5819 5817 5816 5816 5815 5813 5811 5810 5808 5806 5802 5799 5795 5790 5785 5781 5777 5772 5767
5741 5746 5752 5756 5761 5766 5770 5774 5777 5781 5788 5792 5796 5798 5802 5805 5807 5810 5810 5810 5809 5808 5809 5807 5806 5805 5804 5801 5798 5794 5790 5786 5783 5778 5774 5770 5766 5760
5731 5737 5742 5746 5749 5754 5758 5763 5765 5767 5778 5781 5784 5790 5794 5796 5798 5801 5801 5801 5799 5799 5799 5799 5798 5797 5795 5793 5791 5789 5784 5779 5775 5771 5768 5764 5760 5754
5722 5727 5730 5734 5740 5742 5747 5751 5753 5759 5765 5769 5772 5778 5783 5787 5790 5792 5791 5790 5791 5791 5791 5791 5789 5786 5786 5784 5781 5776 5774 5771 5767 5763 5759 5757 5753 5748
5710 5716 5720 5725 5729 5732 5735 5738 5743 5750 5755 5758 5765 5767 5772 5776 5780 5780 5780 5781 5782 5784 5782 5782 5779 5779 5777 5774 5771 5767 5764 5761 5758 5754 5750 5748 5745 5741
5699 5704 5709 5713 5717 5721 5723 5728 5735 5738 5743 5749 5754 5758 5763 5766 5768 5770 5768 5770 5772 5772 5772 5772 5770 5770 5767 5765 5763 5759 5755 5751 5746 5742 5740 5739 5737 5734
5687 5691 5696 5702 5706 5712 5716 5720 5725 5729 5732 5739 5743 5748 5753 5756 5756 5756 5757 5758 5761 5763 5763 5762 5761 5760 5758 5756 5752 5749 5745 5743 5739 5734 5732 5730 5729 5725
5675 5680 5683 5687 5693 5702 5705 5709 5714 5718 5722 5728 5733 5737 5739 5741 5743 5743 5743 5746 5750 5751 5752 5751 5751 5750 5747 5746 5743 5739 5735 5733 5730 5726 5724 5723 5720 5716
5660 5665 5673 5675 5680 5687 5692 5697 5702 5706 5710 5714 5719 5723 5726 5727 5729 5729 5732 5734 5737 5740 5739 5739 5741 5738 5737 5736 5732 5728 5725 5722 5719 5718 5716 5714 5712 5708
5639 5645 5655 5663 5668 5675 5679 5683 5689 5695 5698 5701 5706 5710 5712 5712 5712 5715 5718 5721 5725 5726 5727 5725 5727 5725 5726 5725 5722 5718 5716 5713 5710 5708 5706 5706 5703 5699
5626 5633 5640 5648 5653 5660 5667 5673 5677 5681 5683 5687 5690 5693 5696 5698 5702 5705 5706 5709 5711 5713 5713 5713 5713 5711 5711 5711 5711 5708 5705 5703 5700 5698 5696 5694 5692 5689
5615 5622 5625 5633 5640 5644 5647 5656 5660 5664 5666 5670 5674 5679 5683 5686 5691 5694 5694 5695 5697 5699 5700 5700 5700 5699 5698 5696 5697 5696 5694 5692 5690 5688 5686 5685 5681 5679
5603 5609 5614 5618 5622 5627 5634 5638 5642 5644 5648 5653 5658 5663 5668 5671 5673 5676 5680 5682 5683 5686 5686 5686 5686 5686 5684 5684 5683 5683 5682 5681 5679 5678 5675 5674 5672 5670
5591 5595 5599 5602 5607 5611 5616 5619 5624 5628 5633 5636 5642 5648 5651 5654 5658 5663 5664 5666 5668 5670 5672 5673 5672 5671 5670 5670 5669 5668 5668 5668 5667 5667 5664 5663 5661 5661
5576 5581 5588 5591 5593 5597 5601 5603 5606 5609 5616 5619 5623 5631 5636 5638 5644 5647 5648 5651 5653 5656 5660 5657 5657 5657 5656 5656 5656 5656 5656 5656 5656 5655 5653 5652 5651 5650
5560 5565 5571 5575 5579 5583 5584 5585 5592 5594 5599 5602 5608 5614 5618 5623 5628 5630 5632 5635 5638 5641 5641 5642 5643 5643 5642 5642 5643 5643 5643 5643 5643 5642 5641 5639 5638 5638
5542 5548 5552 5557 5562 5566 5567 5572 5575 5580 5584 5588 5593 5596 5600 5605 5610 5614 5616 5621 5623 5625 5626 5627 5629 5628 5629 5631 5631 5631 5630 5630 5629 5628 5628 5627 5626 5626
5522 5528 5534 5538 5544 5548 5551 5556 5562 5564 5567 5572 5575 5579 5583 5588 5593 5598 5602 5604 5606 5610 5611 5612 5613 5614 5614 5614 5617 5618 5617 5616 5616 5616 5615 5614 5613 5612
5502 5508 5514 5520 5524 5528 5532 5538 5542 5545 5547 5552 5557 5562 5565 5571 5577 5581 5586 5587 5591 5592 5595 5599 5598 5598 5600 5601 5604 5603 5602 5602 5603 5603 5603 5602 5600 5598
5481 5487 5494 5501 5506 5511 5514 5519 5523 5528 5530 5534 5538 5543 5548 5554 5558 5564 5568 5572 5575 5577 5580 5581 5583 5585 5588 5588 5588 5589 5589 5590 5590 5590 5590 5589 5587 5584
5462 5466 5472 5479 5487 5494 5498 5501 5507 5509 5515 5519 5522 5526 5530 5536 5540 5546 5550 5553 5556 5558 5562 5566 5568 5569 5573 5573 5575 5574 5575 5574 5574 5575 5574 5572 5571 5570
Wind_Speed
49 47 45 45 42 45 49 47 47 43 43 47 42 42 37 36 36 35 33 33 31 30 29 29 29 27 29 30 32 34 36 39 42 41 37 37 35 36
49 49 46 48 49 51 52 54 54 49 47 48 45 42 37 37 38 37 36 34 33 31 30 29 30 28 29 33 36 37 39 41 41 40 36 36 38 37
43 58 53 51 47 51 52 47 51 49 45 48 45 42 42 42 41 39 37 34 34 33 32 31 30 31 32 33 36 39 43 43 41 42 41 38 39 37
32 41 56 44 56 57 53 54 56 50 47 51 44 47 43 44 42 38 38 35 34 36 34 32 32 34 36 36 37 40 44 41 43 44 44 40 38 38
34 40 45 40 40 40 45 51 59 54 50 51 54 46 44 44 40 37 37 36 36 36 34 34 35 38 38 39 42 43 45 44 45 45 46 44 42 37
37 38 41 36 32 39 49 48 59 50 51 56 55 43 45 44 40 37 38 38 37 36 37 37 38 41 40 45 45 46 47 48 48 48 48 46 44 39
42 44 45 44 39 39 40 39 47 48 56 55 53 46 47 41 36 37 41 40 39 37 39 40 41 42 42 45 46 51 52 53 54 51 50 45 42 39
48 49 44 49 46 47 43 45 51 54 51 52 47 49 47 42 39 41 45 42 41 41 43 41 44 44 46 47 49 52 54 56 51 47 43 41 41 39
48 50 48 44 43 42 39 41 45 45 45 49 53 50 46 44 44 48 47 46 46 46 46 44 44 45 47 49 51 53 53 49 44 36 34 38 40 39
53 51 53 52 47 45 47 47 48 49 49 49 50 48 48 48 50 52 52 50 50 49 49 47 45 46 47 50 53 48 49 43 42 36 36 37 37 36
57 57 55 54 53 48 50 51 52 52 54 54 54 53 50 52 55 57 55 53 53 51 51 50 48 49 46 46 48 41 45 44 41 40 38 38 39 37
44 40 49 58 52 52 53 53 62 56 54 57 50 52 55 57 58 58 59 57 56 55 50 53 52 51 50 49 47 43 40 39 38 38 39 42 39 39
72 47 39 58 64 58 55 56 56 54 55 56 57 59 59 59 56 57 58 57 56 52 50 53 52 49 54 54 49 45 42 41 41 41 39 39 39 41
69 69 68 51 51 54 64 64 63 60 59 58 57 56 55 59 58 55 55 55 54 51 51 51 55 55 53 49 46 47 47 46 44 45 43 40 39 37
62 73 69 72 69 70 61 62 68 67 64 63 61 57 55 54 55 54 54 53 52 52 54 52 46 45 44 46 44 47 45 47 45 42 42 37 35 36
67 62 57 62 64 67 63 54 66 68 70 64 61 59 59 60 59 56 54 54 54 55 53 53 50 44 43 46 48 51 50 49 46 43 37 35 35 36
69 64 66 62 58 59 67 68 66 74 75 63 61 61 63 63 59 59 58 56 62 60 53 48 49 50 52 50 52 51 49 47 44 41 38 36 36 37
72 73 68 65 63 62 68 70 54 55 61 59 57 64 66 63 60 60 59 60 61 61 56 52 52 55 54 52 51 49 48 44 43 44 40 36 32 36
70 71 69 65 64 58 56 47 50 48 63 63 61 65 63 66 62 64 55 61 60 59 55 49 49 49 47 47 49 47 47 48 47 41 37 35 36 42
70 70 69 65 65 60 53 54 55 65 63 68 64 62 60 60 59 58 57 58 53 63 53 48 47 47 47 47 48 47 47 46 42 39 40 44 46 48
75 70 69 69 64 60 59 61 57 51 57 60 57 59 55 55 58 57 61 65 61 55 52 51 47 48 48 47 50 48 46 43 43 40 42 45 50 51
74 75 70 66 66 67 60 58 57 63 45 56 64 62 71 69 69 60 66 56 53 50 49 47 46 47 46 45 46 43 39 43 44 48 51 51 55 59
61 62 65 65 64 63 65 57 52 57 58 47 51 55 64 65 57 67 64 59 51 53 47 49 56 51 54 51 53 52 50 55 59 57 54 54 58 60
Wind_Direction
226 223 219 222 225 234 235 225 230 229 232 238 235 239 243 248 255 262 268 276 283 290 296 300 299 302 309 314 316 323 322 323 327 325 327 330 329 330
226 226 224 221 225 233 240 231 229 227 234 241 239 242 246 249 253 260 266 273 279 284 289 292 292 298 302 307 312 317 318 323 323 327 324 327 329 325
231 224 222 223 228 236 244 243 246 225 239 242 239 243 246 249 252 258 264 269 275 283 286 287 290 294 301 302 309 314 320 319 319 322 322 321 325 326
239 230 222 232 234 236 242 240 240 230 233 243 237 242 251 251 254 259 263 268 273 280 284 288 290 293 297 300 305 313 317 314 311 317 318 321 322 324
230 237 232 232 233 237 245 246 247 223 231 237 236 242 251 252 254 258 263 265 271 279 284 283 284 286 291 294 296 300 318 316 312 313 314 317 319 322
227 232 242 249 242 238 234 240 238 217 229 233 235 240 249 249 250 255 256 260 268 276 279 280 281 285 291 296 300 304 308 312 310 308 309 311 314 320
224 232 229 241 240 237 236 231 232 224 232 240 234 248 249 248 249 250 254 259 264 271 275 277 280 286 291 296 301 304 308 308 308 303 303 306 308 317
226 228 231 230 233 236 232 230 225 227 238 237 235 246 250 250 247 250 254 259 265 268 271 275 282 287 290 296 298 305 307 307 307 299 296 300 304 313
232 231 230 231 231 232 232 231 232 236 238 241 246 246 249 252 248 249 255 259 262 265 269 274 280 284 288 293 299 302 304 305 303 299 297 300 305 310
230 233 231 230 232 231 238 236 237 239 237 240 243 245 248 249 252 253 254 257 261 265 269 273 277 281 286 291 296 296 295 294 300 302 301 304 305 304
238 232 239 236 232 231 233 238 236 238 237 239 239 241 247 249 251 254 257 259 261 264 268 274 276 278 282 292 294 288 292 290 296 293 298 299 302 302
243 236 244 234 240 239 237 231 241 245 244 247 248 250 250 249 252 256 257 260 264 266 271 273 275 278 282 285 291 285 287 293 296 296 294 292 297 301
239 243 244 238 235 237 238 238 239 240 241 243 245 246 248 248 253 258 260 262 263 266 268 271 276 279 282 285 280 281 285 290 295 296 292 292 292 294
240 243 240 244 245 249 240 238 243 242 244 244 245 247 249 251 254 257 259 260 262 263 267 270 276 276 276 275 273 273 280 284 289 292 294 292 289 293
251 245 250 254 255 262 251 242 243 243 243 242 244 243 250 253 253 254 256 257 260 264 268 270 263 269 272 273 269 275 278 280 288 295 292 291 294 296
250 253 261 259 254 260 245 250 244 242 249 246 245 246 248 250 254 253 253 257 255 260 264 263 263 262 264 265 267 271 276 281 288 291 292 293 293 296
252 251 251 258 259 265 262 254 256 243 245 247 246 245 246 247 250 252 256 251 260 265 255 256 259 262 263 264 268 274 279 282 283 287 288 288 292 292
249 251 254 257 259 260 266 258 262 250 243 248 247 242 244 247 254 253 258 257 259 255 249 255 258 264 267 267 268 272 275 280 282 283 283 284 283 292
248 248 250 253 255 257 265 266 252 248 253 249 257 250 243 244 252 258 253 245 250 253 258 255 257 261 266 268 270 269 273 276 278 278 279 276 281 291
246 248 248 251 252 251 252 256 257 254 250 251 257 251 245 246 249 253 251 249 252 259 256 252 256 260 258 260 262 266 271 274 269 270 271 275 279 284
242 245 246 247 251 253 256 258 257 255 254 251 245 247 242 250 251 253 249 248 249 246 251 253 261 256 259 260 263 269 267 266 263 269 274 277 280 281
238 241 243 244 246 250 247 250 253 255 252 250 244 253 247 250 255 250 241 240 246 240 248 251 256 258 258 260 259 259 265 272 272 275 276 283 283 281
222 224 231 236 243 240 241 243 248 248 243 248 244 237 242 244 241 237 242 245 242 241 240 251 253 257 260 260 261 260 271 275 275 279 275 281 280 281